[[{"header":{"parameterUnit":"m.s-1","parameterCategory":1,"la1":30.2991,"la2":30.254,"lo1":-89.0895,"lo2":-89.0444,"dy":0.0017,"dx":0.0017,"nx":28,"ny":28,"refTime":"2025-11-10T03:00:00:Z","depth":0,"parameterNumber":2,"parameterNumberName":"U-component_of_WINDS"},"data":[0,0,0,0,0,0,0,0,0,0,0,0,0,0,0,0,0,0,0,0,0,0,0,0,0,0,0,0,0,0,0,0,0,0,0,0,0,0,0,0,0,0,0,0,0,0,0,0,0,0,0,0,0,0,0,0,0,0,4.038,4.0381,0,4.0423,4.0423,4.0424,4.0392,4.0391,4.039,4.0388,4.0429,4.0432,4.0434,0,0,0,0,0,0,0,0,0,0,0,0,0,4.0272,4.0274,4.038,4.0381,4.0381,4.0423,4.0423,4.0424,4.0393,4.0391,4.0389,4.0388,4.0429,4.0431,4.0434,0,0,0,0,0,0,0,0,0,0,0,0,0,4.0317,4.0275,4.038,4.0371,4.037,4.0422,4.0423,4.0424,4.0393,4.0391,4.0389,4.0387,4.0428,4.0431,4.0435,4.0497,0,0,4.0445,4.0447,0,0,0,0,0,0,0,0,4.0315,4.0321,4.0372,4.0372,4.0371,4.04,4.04,4.0448,4.0393,4.0384,4.0388,4.0386,4.0421,4.0425,4.0437,4.0499,4.0501,4.0446,4.0448,4.0449,4.045,0,0,0,0,0,0,0,4.0312,4.0319,4.0397,4.0373,4.0372,4.0364,4.0369,4.0409,4.0414,4.0385,4.0383,4.0388,4.0421,4.0434,4.0438,4.0502,4.0446,4.0449,4.0451,4.0452,4.062,4.0622,0,0,0,0,0,0,4.031,4.0317,4.0396,4.0398,4.0337,4.0368,4.0373,4.0393,4.0413,4.0414,4.039,4.0387,4.0429,4.0434,4.044,4.0516,4.0449,4.0453,4.0455,4.0617,4.062,4.0623,0,0,0,0,0,0,4.0307,4.0317,4.0394,4.0357,4.0366,4.0372,4.0395,4.0395,4.0408,4.0417,4.0418,4.0403,4.0428,4.0435,4.0484,4.0516,4.0454,4.0458,4.0614,4.0618,4.0621,4.0667,0,0,0,0,0,0,4.0304,4.0316,4.034,4.0358,4.0368,4.0438,4.0397,4.0397,4.0415,4.0411,4.0429,4.043,4.0427,4.0479,4.0487,4.052,4.046,4.0612,4.0616,4.062,4.0663,4.0672,4.068,0,0,0,0,0,4.0301,4.035,4.0341,4.0351,4.0398,4.044,4.0446,4.0441,4.0417,4.0442,4.0448,4.043,4.0512,4.0484,4.0494,4.0528,4.0609,4.0615,4.062,4.0659,4.067,4.068,0,0,0,0,0,0,4.0335,4.0352,4.0343,4.04,4.0419,4.0434,4.0464,4.0452,4.0478,4.0473,4.0465,4.047,4.0522,4.053,4.0499,4.0591,4.0557,4.0564,4.0584,4.0594,4.0602,4.0599,4.0463,0,0,0,0,0,4.0349,4.0382,4.0395,4.0444,4.0455,4.0458,4.0476,4.0471,4.049,4.0497,4.0507,4.0525,4.0556,4.0575,4.0603,4.0664,4.0669,4.0693,4.0701,4.0708,4.0714,4.0749,4.076,4.064,4.064,4.0639,0,0,4.0378,4.0392,4.0413,4.0452,4.0466,4.05,4.0465,4.0502,4.0527,4.0503,4.055,4.0558,4.0579,4.0635,4.066,4.0643,4.0749,4.0715,4.072,4.0723,4.0755,4.0767,4.0777,4.0643,4.0642,4.0642,0,0,4.045,4.0463,4.0506,4.0522,4.0545,4.0547,4.0558,4.0576,4.0581,4.0629,4.0612,4.0642,4.0693,4.0709,4.0724,4.0805,4.079,4.0814,4.0858,4.0891,4.0901,4.0909,4.0939,4.0949,4.0821,4.0821,4.0821,0,4.0483,4.0534,4.053,4.0569,4.0587,4.0569,4.0612,4.0627,4.0658,4.067,4.0652,4.0718,4.073,4.079,4.081,4.0823,4.0835,4.0811,4.09,4.0908,4.0916,4.0944,4.0955,4.0824,4.0823,4.0823,4.0823,0,4.0575,4.0611,4.0643,4.0674,4.0696,4.0737,4.0739,4.0762,4.0756,4.0761,4.0811,4.0825,4.0857,4.0871,4.0865,4.0931,4.092,4.0901,4.0866,4.0931,4.0957,4.0967,4.0828,4.0827,4.0826,4.0825,0,0,4.0666,4.0697,4.0709,4.0724,4.0749,4.0776,4.0817,4.0849,4.0869,4.0891,4.0926,4.0972,4.0955,4.0972,4.0967,4.0997,4.1062,4.0974,4.0975,4.099,4.1137,4.1151,4.1163,4.1052,4.1054,4.1056,4.1135,0,4.0739,4.0811,4.081,4.0877,4.0911,4.0895,4.0931,4.0951,4.0957,4.0986,4.0993,4.1026,4.1001,4.1011,4.104,4.1048,4.1091,4.1042,4.1084,4.1086,4.1079,4.1177,4.1192,4.1265,4.1145,4.1147,4.1148,0,4.0833,4.086,4.0931,4.0953,4.0967,4.1,4.103,4.1059,4.1081,4.1083,4.1104,4.1096,4.1138,4.1104,4.1162,4.1129,4.1147,4.1154,4.1156,4.1159,4.112,4.1183,4.1289,4.13,4.1164,4.1163,4.1162,0,4.0893,4.0948,4.0998,4.1011,4.1037,4.1061,4.1073,4.1093,4.1114,4.114,4.1154,4.1185,4.1202,4.1226,4.1227,4.1201,4.1287,4.1252,4.129,4.129,4.1307,4.1306,4.1418,4.132,4.1319,4.1319,4.1319,0,4.0975,4.1019,4.1025,4.1056,4.1105,4.1104,4.1153,4.1163,4.1182,4.1214,4.1203,4.1233,4.1233,4.1264,4.1265,4.1314,4.1322,4.1325,4.1325,4.1326,4.1326,4.1337,4.1332,4.1322,4.1321,4.1321,4.132,0,4.105,4.1056,4.1109,4.1132,4.1138,4.1174,4.1192,4.1222,4.1228,4.127,4.1279,4.1289,4.1326,4.1329,4.1371,4.1372,4.1432,4.1426,4.1424,4.1423,4.1462,4.1458,4.1584,4.1601,4.1492,4.1493,4.1493,0,4.1101,4.1135,4.1161,4.1183,4.1197,4.1231,4.1253,4.1253,4.1276,4.1305,4.1332,4.1368,4.1396,4.1456,4.1466,4.1499,4.1494,4.1536,4.1498,4.1499,4.1495,4.1493,4.1497,4.1543,4.1544,4.1545,4.1546,0,4.1191,4.1193,4.1225,4.1258,4.1284,4.131,4.1335,4.1353,4.1357,4.1383,4.1421,4.1444,4.1488,4.1524,4.1557,4.1569,4.1559,4.1558,4.1568,4.157,4.1568,4.157,4.1444,4.1554,4.1554,4.1553,4.1552,4.1552,4.1256,4.1286,4.131,4.1346,4.1365,4.1389,4.1418,4.1429,4.1461,4.1498,4.1497,4.1539,4.1562,4.1606,4.1621,4.1654,4.164,4.1655,4.1659,4.1663,4.1667,4.1563,4.166,4.166,4.166,4.1659,4.1659,0,4.1346,4.1362,4.1395,4.143,4.1459,4.1448,4.1475,4.15,4.1537,4.1561,4.159,4.1635,4.167,4.1685,4.172,4.1744,4.174,4.1753,4.1751,4.1754,4.1677,4.1665,4.1756,4.1756,4.1756,4.1756,4.1756,4.1756,4.1396,4.1447,4.1453,4.1513,4.1528,4.157,4.1587,4.1609,4.1628,4.1679,4.1709,4.1719,4.1739,4.1776,4.1808,4.1812,4.1825,4.1841,4.1842,4.1769,4.176,4.175,4.1738,4.1843,4.1844,4.1916,4.1917,4.1917]},{"header":{"parameterUnit":"m.s-1","parameterCategory":1,"la1":30.2991,"la2":30.254,"lo1":-89.0895,"lo2":-89.0444,"dy":0.0017,"dx":0.0017,"nx":28,"ny":28,"refTime":"2025-11-10T03:00:00:Z","depth":0,"parameterNumber":3,"parameterNumberName":"V-component_of_WINDS"},"data":[0,0,0,0,0,0,0,0,0,0,0,0,0,0,0,0,0,0,0,0,0,0,0,0,0,0,0,0,0,0,0,0,0,0,0,0,0,0,0,0,0,0,0,0,0,0,0,0,0,0,0,0,0,0,0,0,0,0,-7.5594,-7.5596,0,-7.5743,-7.5744,-7.5746,-7.5715,-7.5712,-7.571,-7.5707,-7.5855,-7.5861,-7.5867,0,0,0,0,0,0,0,0,0,0,0,0,0,-7.5282,-7.5287,-7.5594,-7.5596,-7.5598,-7.5742,-7.5744,-7.5746,-7.5716,-7.5712,-7.5709,-7.5706,-7.5852,-7.586,-7.5868,0,0,0,0,0,0,0,0,0,0,0,0,0,-7.5422,-7.5289,-7.5594,-7.56,-7.5602,-7.5742,-7.5745,-7.5747,-7.5716,-7.5712,-7.5708,-7.5704,-7.585,-7.5859,-7.5869,-7.601,0,0,-7.5898,-7.5903,0,0,0,0,0,0,0,0,-7.5414,-7.5434,-7.5597,-7.56,-7.5603,-7.5706,-7.5688,-7.5835,-7.5717,-7.5673,-7.5707,-7.5702,-7.5808,-7.5821,-7.5858,-7.6017,-7.6024,-7.5899,-7.5905,-7.5909,-7.5912,0,0,0,0,0,0,0,-7.5405,-7.5427,-7.5653,-7.56,-7.5603,-7.5595,-7.561,-7.5716,-7.5761,-7.5676,-7.5675,-7.5693,-7.5809,-7.5848,-7.5861,-7.6026,-7.5899,-7.5908,-7.5914,-7.5917,-7.6311,-7.6315,0,0,0,0,0,0,-7.5393,-7.5419,-7.5648,-7.5657,-7.5497,-7.5604,-7.5621,-7.5677,-7.576,-7.5769,-7.5696,-7.5691,-7.5834,-7.585,-7.5866,-7.6039,-7.5909,-7.5918,-7.5924,-7.6306,-7.6312,-7.6317,0,0,0,0,0,0,-7.5387,-7.5414,-7.5642,-7.5538,-7.5566,-7.5613,-7.5677,-7.5682,-7.5722,-7.5775,-7.5783,-7.5729,-7.5831,-7.5852,-7.5976,-7.6043,-7.5923,-7.5932,-7.6301,-7.6308,-7.6314,-7.6384,0,0,0,0,0,0,-7.5378,-7.5412,-7.5466,-7.554,-7.5572,-7.575,-7.5681,-7.5688,-7.5739,-7.5734,-7.5808,-7.5816,-7.583,-7.5961,-7.5985,-7.6054,-7.5939,-7.6295,-7.6304,-7.6312,-7.6376,-7.6392,-7.6407,0,0,0,0,0,-7.5367,-7.5479,-7.5469,-7.5497,-7.5642,-7.5754,-7.5773,-7.5788,-7.5745,-7.58,-7.5835,-7.5814,-7.6032,-7.5974,-7.6001,-7.6074,-7.6291,-7.6301,-7.6311,-7.6369,-7.6389,-7.6406,0,0,0,0,0,0,-7.541,-7.5488,-7.5479,-7.5618,-7.568,-7.5749,-7.5819,-7.5808,-7.5882,-7.5874,-7.5888,-7.5905,-7.6031,-7.6064,-7.5998,-7.6216,-7.6155,-7.6171,-7.619,-7.6209,-7.6224,-7.6213,-7.5947,0,0,0,0,0,-7.5436,-7.5522,-7.5585,-7.5702,-7.5734,-7.5771,-7.5821,-7.5827,-7.5891,-7.5917,-7.596,-7.6022,-7.6105,-7.6159,-7.6238,-7.6381,-7.6397,-7.6444,-7.646,-7.6472,-7.6486,-7.6565,-7.6587,-7.6351,-7.6351,-7.6351,0,0,-7.549,-7.5544,-7.5597,-7.5712,-7.5761,-7.5849,-7.5793,-7.5888,-7.5954,-7.593,-7.605,-7.6085,-7.6155,-7.6289,-7.635,-7.6321,-7.6555,-7.6485,-7.6495,-7.6502,-7.6578,-7.6601,-7.662,-7.6358,-7.6357,-7.6356,0,0,-7.5634,-7.5683,-7.5787,-7.5838,-7.5913,-7.5938,-7.5962,-7.6034,-7.6056,-7.6177,-7.6162,-7.624,-7.6382,-7.6433,-7.6477,-7.6644,-7.6627,-7.6669,-7.6749,-7.6826,-7.6845,-7.6862,-7.6922,-7.6943,-7.6682,-7.6683,-7.6683,0,-7.5692,-7.5825,-7.5841,-7.5939,-7.599,-7.5976,-7.6081,-7.6128,-7.6225,-7.6261,-7.6227,-7.6407,-7.6452,-7.6599,-7.664,-7.6676,-7.6705,-7.666,-7.6841,-7.6858,-7.6874,-7.6931,-7.6954,-7.6687,-7.6687,-7.6686,-7.6686,0,-7.5892,-7.5985,-7.6059,-7.6156,-7.6216,-7.6316,-7.6347,-7.6405,-7.6407,-7.6435,-7.6559,-7.6614,-7.6705,-7.674,-7.6742,-7.6888,-7.6868,-7.6838,-7.6777,-7.6901,-7.6955,-7.6977,-7.6694,-7.6692,-7.6691,-7.669,0,0,-7.6066,-7.6172,-7.6199,-7.6244,-7.6327,-7.6398,-7.6499,-7.6589,-7.664,-7.6707,-7.6792,-7.6914,-7.6887,-7.6938,-7.6945,-7.7013,-7.7143,-7.6975,-7.6977,-7.7005,-7.7308,-7.7331,-7.7356,-7.7133,-7.7137,-7.7141,-7.7303,0,-7.6218,-7.6397,-7.6415,-7.6574,-7.6661,-7.665,-7.6737,-7.6797,-7.6827,-7.6904,-7.6935,-7.7022,-7.698,-7.7011,-7.7077,-7.7113,-7.7204,-7.7102,-7.7211,-7.7215,-7.7194,-7.7384,-7.7408,-7.7558,-7.7324,-7.7328,-7.733,0,-7.6419,-7.6495,-7.6664,-7.6738,-7.6774,-7.6853,-7.6939,-7.7012,-7.7081,-7.7097,-7.7156,-7.7155,-7.7258,-7.7193,-7.7336,-7.7266,-7.7312,-7.7336,-7.7342,-7.7353,-7.728,-7.7401,-7.7606,-7.7629,-7.7364,-7.7361,-7.7359,0,-7.653,-7.6675,-7.6795,-7.6833,-7.6921,-7.6977,-7.7016,-7.7081,-7.7135,-7.7209,-7.7245,-7.7329,-7.7376,-7.7441,-7.7463,-7.7414,-7.7605,-7.7542,-7.7622,-7.7622,-7.7662,-7.7659,-7.7879,-7.7692,-7.7691,-7.7691,-7.769,0,-7.6698,-7.6802,-7.6847,-7.692,-7.7037,-7.7057,-7.7171,-7.7207,-7.7265,-7.7345,-7.734,-7.7415,-7.744,-7.7519,-7.7537,-7.7653,-7.7673,-7.769,-7.7693,-7.7691,-7.7689,-7.7721,-7.7711,-7.7697,-7.7695,-7.7694,-7.7693,0,-7.6842,-7.6876,-7.7006,-7.708,-7.7101,-7.7184,-7.7246,-7.7318,-7.7347,-7.7449,-7.7474,-7.7519,-7.7612,-7.7641,-7.7753,-7.7765,-7.7901,-7.7895,-7.7878,-7.7879,-7.7957,-7.795,-7.8205,-7.824,-7.8029,-7.8031,-7.8033,0,-7.6947,-7.7027,-7.7111,-7.7165,-7.7207,-7.7294,-7.7351,-7.7373,-7.7432,-7.7517,-7.7578,-7.7671,-7.7747,-7.7897,-7.7939,-7.8025,-7.8021,-7.8105,-7.8034,-7.8029,-7.8023,-7.8019,-7.8027,-7.8118,-7.812,-7.8122,-7.8123,0,-7.713,-7.7144,-7.7226,-7.7314,-7.7382,-7.7452,-7.7519,-7.7564,-7.7597,-7.7663,-7.776,-7.7819,-7.7935,-7.8027,-7.8115,-7.8154,-7.8145,-7.8146,-7.8169,-7.8167,-7.8155,-7.8163,-7.7915,-7.814,-7.8138,-7.8137,-7.8136,-7.8135,-7.7259,-7.733,-7.7401,-7.7492,-7.7546,-7.761,-7.7681,-7.772,-7.7802,-7.79,-7.7908,-7.8013,-7.808,-7.8198,-7.8242,-7.8324,-7.8299,-7.8333,-7.8341,-7.8349,-7.8356,-7.8142,-7.834,-7.8339,-7.8339,-7.8339,-7.8338,0,-7.7442,-7.7488,-7.7572,-7.7669,-7.7741,-7.7728,-7.7802,-7.7863,-7.7956,-7.8021,-7.8097,-7.8209,-7.8299,-7.8349,-7.8439,-7.8495,-7.8493,-7.8518,-7.8514,-7.8524,-7.8372,-7.8344,-7.8519,-7.8518,-7.8518,-7.8518,-7.8518,-7.8518,-7.7547,-7.7667,-7.769,-7.7837,-7.7881,-7.7986,-7.803,-7.8089,-7.8141,-7.8267,-7.8343,-7.8375,-7.8435,-7.853,-7.8612,-7.8624,-7.8658,-7.8686,-7.8696,-7.8553,-7.8534,-7.8517,-7.849,-7.8693,-7.8693,-7.8841,-7.8842,-7.8843]}]]